This is the latest recevied weather packets stored in our database for station/object K7DC. If no packets are shown the sender has not sent any weather packets the latest 1 day(s).
| Time | Temp. | Humidity | Pressure | Rain* | Wind** | Luminosity | Snow |
|---|---|---|---|---|---|---|---|
| 1777974311 | 14.44° C | 93% | 1012.9 hPa | 0 mm | 0.45 m/s, 149° | 0 W/m² | - |
| 1777974007 | 14.44° C | 93% | 1012.8 hPa | 0 mm | 0.89 m/s, 138° | 0 W/m² | - |
| 1777973703 | 14.44° C | 93% | 1013.2 hPa | 0 mm | 0.45 m/s, 166° | 0 W/m² | - |
| 1777973400 | 14.44° C | 93% | 1013 hPa | 0 mm | 0.89 m/s, 119° | 0 W/m² | - |
| 1777973098 | 14.44° C | 93% | 1012.9 hPa | 0 mm | 0.89 m/s, 101° | 0 W/m² | - |
| 1777972795 | 14.44° C | 93% | 1013.3 hPa | 0 mm | 0.89 m/s, 143° | 0 W/m² | - |
| 1777972493 | 14.44° C | 93% | 1013.4 hPa | 1.78 mm | 0.45 m/s, 163° | 0 W/m² | - |
| 1777972191 | 14.44° C | 93% | 1013.5 hPa | 0 mm | 1.34 m/s, 134° | 0 W/m² | - |
| 1777971889 | 14.44° C | 94% | 1013.9 hPa | 0 mm | 0.89 m/s, 146° | 0 W/m² | - |
| 1777971586 | 14.44° C | 94% | 1013.7 hPa | 1.27 mm | 0.45 m/s, 138° | 0 W/m² | - |
| 1777971284 | 14.44° C | 94% | 1014.1 hPa | 1.27 mm | 0.45 m/s, 112° | 0 W/m² | - |
| 1777970982 | 14.44° C | 94% | 1014 hPa | 0 mm | 0.89 m/s, 136° | 0 W/m² | - |
| 1777970680 | 14.44° C | 94% | 1014.4 hPa | 1.78 mm | 0.89 m/s, 122° | 0 W/m² | - |
| 1777970377 | 14.44° C | 94% | 1014.4 hPa | 1.78 mm | 0.45 m/s, 151° | 0 W/m² | - |
| 1777970074 | 14.44° C | 94% | 1014.5 hPa | 0 mm | 0.89 m/s, 126° | 0 W/m² | - |
| 1777969771 | 14.44° C | 94% | 1014.7 hPa | 1.27 mm | 0.89 m/s, 107° | 0 W/m² | - |
| 1777969466 | 14.44° C | 93% | 1014.7 hPa | 1.27 mm | 0.45 m/s, 117° | 0 W/m² | - |
| 1777969164 | 14.44° C | 93% | 1015 hPa | 0 mm | 0.45 m/s, 136° | 0 W/m² | - |
| 1777968861 | 14.44° C | 93% | 1015.1 hPa | 1.78 mm | 0.45 m/s, 120° | 0 W/m² | - |
| 1777968557 | 14.44° C | 93% | 1015.3 hPa | 1.78 mm | 0.45 m/s, 122° | 0 W/m² | - |
| 1777968253 | 14.44° C | 93% | 1015.5 hPa | 1.27 mm | 0.45 m/s, 115° | 0 W/m² | - |
| 1777967949 | 14.44° C | 94% | 1015.4 hPa | 1.27 mm | 0.45 m/s, 114° | 0 W/m² | - |
| 1777967646 | 14.44° C | 93% | 1015.4 hPa | 1.78 mm | 0.45 m/s, 113° | 0 W/m² | - |
| 1777967343 | 14.44° C | 93% | 1015.5 hPa | 1.78 mm | 0.45 m/s, 102° | 0 W/m² | - |
| 1777967040 | 14.44° C | 93% | 1015.4 hPa | 1.27 mm | 0.89 m/s, 118° | 0 W/m² | - |
* Rain latest hour (hover to see other rain measurements)
** Current wind speed in m/s (hover to see current wind gust speed)